Location: Pallagorio
(39.3000°N, 16.9000°E)
Time: 21:53:05
(UTC+00:00)

Cosmos 1340 - Pass Details

Date: 24 January 2021
Orbit: 501 x 504 km, 81.2° (Epoch: 02 March)

Event Time Altitude Azimuth Distance (km) Brightness Sun altitude
Rises 17:45:04 0° 202° (SSW) 2,581 6.7 -19.6°
Reaches altitude 10° 17:47:15 10° 209° (SSW) 1,702 5.8 -20.0°
Maximum altitude 17:50:50 44° 282° (WNW) 704 3.8 -20.7°
Drops below altitude 10° 17:54:26 10° 356° (N) 1,714 5.3 -21.4°
Enters shadow 17:54:47 - 357° (N) 1,849 5.4 -21.4°
